Time,TemperatureF,DewpointF,PressureIn,WindDirection,WindDirectionDegrees,WindSpeedMPH,WindSpeedGustMPH,Humidity,HourlyPrecipIn,Conditions,Clouds,dailyrainin,SoftwareType,DateUTC
2013-12-22 00:22:00,23.0,23.0,29.43,NW,315,7.0,12.0,100,0.00,,,0.06,,2013-12-22 05:22:00,
2013-12-22 00:43:00,23.0,23.0,29.41,NW,315,0.0,8.0,100,0.00,,,0.06,,2013-12-22 05:43:00,
2013-12-22 00:53:00,22.0,22.0,29.41,NW,315,0.0,6.0,100,0.00,,,0.06,,2013-12-22 05:53:00,
2013-12-22 01:22:00,23.0,23.0,29.40,NW,315,0.0,8.0,100,0.00,,,0.06,,2013-12-22 06:22:00,
2013-12-22 01:52:00,23.0,23.0,29.39,NW,315,3.0,7.0,100,0.00,,,0.06,,2013-12-22 06:52:00,
2013-12-22 02:22:00,23.0,23.0,29.39,NW,315,3.0,7.0,100,0.00,,,0.06,,2013-12-22 07:22:00,
2013-12-22 02:42:00,23.0,23.0,29.38,NW,315,3.0,10.0,100,0.00,,,0.06,,2013-12-22 07:42:00,
2013-12-22 02:52:00,23.0,23.0,29.38,NW,315,3.0,8.0,100,0.00,,,0.06,,2013-12-22 07:52:00,
2013-12-22 03:22:00,23.0,23.0,29.36,NW,315,1.0,9.0,100,0.00,,,0.06,,2013-12-22 08:22:00,
2013-12-22 03:52:00,23.0,23.0,29.35,NW,315,0.0,1.0,100,0.00,,,0.06,,2013-12-22 08:52:00,
2013-12-22 04:22:00,23.0,23.0,29.30,NW,315,0.0,0.0,100,0.00,,,0.06,,2013-12-22 09:22:00,
2013-12-22 04:43:00,22.0,22.0,29.28,NW,315,0.0,1.0,100,0.00,,,0.06,,2013-12-22 09:43:00,
2013-12-22 04:54:00,22.0,22.0,29.26,NW,315,0.0,3.0,100,0.00,,,0.06,,2013-12-22 09:54:00,
2013-12-22 05:23:00,23.0,23.0,29.26,NW,315,0.0,4.0,100,0.00,,,0.06,,2013-12-22 10:23:00,
2013-12-22 05:42:00,24.0,24.0,29.26,NW,315,0.0,1.0,100,0.00,,,0.06,,2013-12-22 10:42:00,
2013-12-22 05:53:00,24.0,24.0,29.25,NW,315,0.0,1.0,100,0.00,,,0.05,,2013-12-22 10:53:00,
2013-12-22 06:22:00,23.0,23.0,29.25,NW,315,0.0,5.0,100,0.00,,,0.04,,2013-12-22 11:22:00,
2013-12-22 06:52:00,23.0,23.0,29.26,NW,315,2.0,5.0,100,0.00,,,0.03,,2013-12-22 11:52:00,
2013-12-22 07:22:00,24.0,24.0,29.27,NW,315,0.0,0.0,100,0.00,,,0.03,,2013-12-22 12:22:00,
2013-12-22 07:52:00,25.0,25.0,29.25,NW,315,0.0,0.0,100,0.00,,,0.03,,2013-12-22 12:52:00,
2013-12-22 08:12:00,25.0,25.0,29.26,NW,315,0.0,0.0,100,0.00,,,0.03,,2013-12-22 13:12:00,
2013-12-22 08:22:00,26.0,26.0,29.26,NW,315,0.0,5.0,100,0.00,,,0.03,,2013-12-22 13:22:00,
2013-12-22 08:52:00,26.0,26.0,29.27,NW,315,0.0,0.0,100,0.00,,,0.03,,2013-12-22 13:52:00,
2013-12-22 09:12:00,26.0,26.0,29.26,NW,315,0.0,0.0,100,0.00,,,0.03,,2013-12-22 14:12:00,
2013-12-22 09:22:00,26.0,26.0,29.27,NW,315,0.0,0.0,100,0.00,,,0.03,,2013-12-22 14:22:00,
2013-12-22 09:42:00,27.0,27.0,29.28,NW,315,0.0,0.0,100,0.00,,,0.03,,2013-12-22 14:42:00,
2013-12-22 09:52:00,27.0,27.0,29.28,NW,315,0.0,0.0,100,0.00,,,0.03,,2013-12-22 14:52:00,
2013-12-22 10:22:00,28.0,28.0,29.30,NW,315,0.0,0.0,100,0.00,,,0.03,,2013-12-22 15:22:00,
2013-12-22 10:43:00,28.0,28.0,29.31,NW,315,0.0,0.0,100,0.00,,,0.03,,2013-12-22 15:43:00,
2013-12-22 10:53:00,27.0,27.0,29.28,NW,315,0.0,1.0,100,0.00,,,0.02,,2013-12-22 15:53:00,
2013-12-22 11:13:00,27.0,27.0,29.28,NW,315,0.0,1.0,100,0.00,,,0.02,,2013-12-22 16:13:00,
2013-12-22 11:23:00,27.0,27.0,29.28,NW,315,0.0,2.0,100,0.00,,,0.02,,2013-12-22 16:23:00,
2013-12-22 11:43:00,26.0,26.0,29.26,NW,315,0.0,0.0,100,0.00,,,0.02,,2013-12-22 16:43:00,
2013-12-22 11:52:00,26.0,26.0,29.26,NW,315,0.0,3.0,100,0.00,,,0.02,,2013-12-22 16:52:00,
2013-12-22 12:23:00,26.0,26.0,29.22,NW,315,0.0,0.0,100,0.00,,,0.02,,2013-12-22 17:23:00,
2013-12-22 12:42:00,26.0,26.0,29.20,NW,315,0.0,5.0,100,0.00,,,0.02,,2013-12-22 17:42:00,
2013-12-22 12:52:00,25.0,25.0,29.23,NW,315,4.0,10.0,100,0.00,,,0.02,,2013-12-22 17:52:00,
2013-12-22 13:12:00,25.0,25.0,29.26,NW,315,1.0,6.0,100,0.00,,,0.02,,2013-12-22 18:12:00,
2013-12-22 13:22:00,25.0,25.0,29.23,NW,315,0.0,0.0,100,0.00,,,0.02,,2013-12-22 18:22:00,
2013-12-22 13:42:00,25.0,25.0,29.25,NW,315,0.0,2.0,100,0.00,,,0.02,,2013-12-22 18:42:00,
2013-12-22 13:52:00,25.0,25.0,29.23,NW,315,0.0,2.0,100,0.00,,,0.02,,2013-12-22 18:52:00,
2013-12-22 14:13:00,26.0,26.0,29.22,NW,315,0.0,0.0,100,0.00,,,0.02,,2013-12-22 19:13:00,
2013-12-22 14:22:00,26.0,26.0,29.21,NW,315,0.0,0.0,100,0.00,,,0.01,,2013-12-22 19:22:00,
2013-12-22 14:42:00,27.0,27.0,29.20,NW,315,0.0,0.0,100,0.00,,,0.00,,2013-12-22 19:42:00,
2013-12-22 14:52:00,28.0,28.0,29.21,NW,315,1.0,2.0,100,0.00,,,0.00,,2013-12-22 19:52:00,
2013-12-22 15:22:00,28.0,28.0,29.21,NW,315,0.0,0.0,100,0.00,,,0.00,,2013-12-22 20:22:00,
2013-12-22 15:53:00,28.0,28.0,29.22,NW,315,0.0,0.0,100,0.00,,,0.00,,2013-12-22 20:53:00,
2013-12-22 16:22:00,28.0,28.0,29.22,NW,315,0.0,0.0,100,0.00,,,0.00,,2013-12-22 21:22:00,
2013-12-22 16:43:00,28.0,28.0,29.23,NW,315,0.0,0.0,100,0.00,,,0.00,,2013-12-22 21:43:00,
2013-12-22 16:53:00,28.0,28.0,29.23,NW,315,0.0,0.0,100,0.00,,,0.00,,2013-12-22 21:53:00,
2013-12-22 17:13:00,28.0,28.0,29.25,NW,315,0.0,0.0,100,0.00,,,0.00,,2013-12-22 22:13:00,
2013-12-22 17:23:00,28.0,28.0,29.25,NW,315,0.0,0.0,100,0.00,,,0.00,,2013-12-22 22:23:00,
2013-12-22 17:43:00,28.0,28.0,29.26,NW,315,0.0,0.0,100,0.00,,,0.00,,2013-12-22 22:43:00,
2013-12-22 17:53:00,28.0,28.0,29.28,NW,315,0.0,0.0,100,0.00,,,0.00,,2013-12-22 22:53:00,
2013-12-22 18:22:00,28.0,28.0,29.30,NW,315,0.0,0.0,100,0.00,,,0.00,,2013-12-22 23:22:00,
2013-12-22 18:42:00,28.0,28.0,29.31,NW,315,0.0,0.0,100,0.00,,,0.00,,2013-12-22 23:42:00,
2013-12-22 18:53:00,27.0,27.0,29.32,NW,315,0.0,1.0,100,0.00,,,0.00,,2013-12-22 23:53:00,
2013-12-22 19:22:00,26.0,26.0,29.32,NW,315,0.0,0.0,100,0.00,,,0.00,,2013-12-23 00:22:00,
2013-12-22 19:42:00,27.0,27.0,29.33,NW,315,0.0,0.0,100,0.00,,,0.00,,2013-12-23 00:42:00,
2013-12-22 19:52:00,28.0,28.0,29.33,NW,315,0.0,0.0,100,0.00,,,0.00,,2013-12-23 00:52:00,
2013-12-22 20:11:00,27.0,27.0,29.33,NW,315,0.0,0.0,100,0.00,,,0.00,,2013-12-23 01:11:00,
2013-12-22 20:22:00,27.0,27.0,29.34,NW,315,0.0,0.0,100,0.00,,,0.00,,2013-12-23 01:22:00,
2013-12-22 20:42:00,27.0,27.0,29.34,NW,315,0.0,0.0,100,0.00,,,0.00,,2013-12-23 01:42:00,
2013-12-22 20:52:00,27.0,27.0,29.35,NW,315,0.0,0.0,100,0.00,,,0.00,,2013-12-23 01:52:00,
2013-12-22 21:21:00,27.0,27.0,29.35,NW,315,0.0,0.0,100,0.00,,,0.00,,2013-12-23 02:21:00,
2013-12-22 21:52:00,28.0,28.0,29.38,NW,315,0.0,0.0,100,0.00,,,0.00,,2013-12-23 02:52:00,
2013-12-22 22:22:00,28.0,28.0,29.38,NW,315,0.0,0.0,100,0.00,,,0.00,,2013-12-23 03:22:00,
2013-12-22 22:43:00,28.0,28.0,29.39,NW,315,0.0,0.0,100,0.00,,,0.00,,2013-12-23 03:43:00,
2013-12-22 22:53:00,28.0,28.0,29.39,NW,315,0.0,0.0,100,0.00,,,0.00,,2013-12-23 03:53:00,
2013-12-22 23:13:00,28.0,28.0,29.40,NW,315,0.0,0.0,100,0.00,,,0.00,,2013-12-23 04:13:00,
2013-12-22 23:23:00,28.0,28.0,29.40,NW,315,0.0,0.0,100,0.00,,,0.00,,2013-12-23 04:23:00,
2013-12-22 23:43:00,28.0,28.0,29.41,NW,315,0.0,0.0,100,0.00,,,0.00,,2013-12-23 04:43:00,
2013-12-22 23:52:00,28.0,28.0,29.41,NW,315,0.0,0.0,100,0.00,,,0.00,,2013-12-23 04:52:00,